S-NET A (43188 NORAD) Tracking and Keplerian Element Data

This shows tracking and keplerian element data for the satellite.

Feedback or suggestion? Click here.




ElementValue
Catalog43188
NameS-NET A
Epoch Orbit25411
Epoch Day269.95709972
Epoch Year2022
RAAN173.7376
Inclination97.6485
Eccentricity0.000931
Argument of Perigee327.7303
Mean Anonmoly32.3349
Mean Motion14.98221356
Decay Rate2.617E-05
L11 43188U 18014J 22269.95709972 .00002617 00000+0 22515-3 0 9990
L22 43188 97.6485 173.7376 0009310 327.7303 32.3349 14.98221356254115

Live tracking and technical data element details for S-NET A (NORAD 43188). S-NET A can be tracked NOW for your location showing map with azimuth and elevation plus other details from your city location.

Track the satellite on the map from your city or location and see movement details for azimuth, elevation, latitude, longitude, range, height, and movement on the map or in text.







IsCatalogInMostPopularTable: catalog: 43188, numindb: 687
Update: records affected: 1



GetName: 43188 S-NET A

Hit Count: updated at: Wed, 28 Sep 2022 22:14:37 GMT